Regional Weather Roundup
Issued by NWS

Home | Current Version | Previous Version | Graphics & Text | Print | Product List | Glossary Off
Versions: 1 2 3 4 5 6 7 8 9 10 11 12 13 14 15 16 17 18 19 20 21 22 23 24 25 26 27 28

000
ASUS45 KSLC 262010
RWRUT

UTAH REGIONAL WEATHER ROUNDUP
NATIONAL WEATHER SERVICE SALT LAKE CITY UT
200 PM MDT MON JUN 26 2017

UTZ001>011-023>025-262100-

NORTHERN UTAH

CITY           SKY/WX    TMP DP  RH WIND       PRES   REMARKS
BRIGHAM CITY   PTSUNNY   89  39  16 CALM      30.04F
DUGWAY         MOSUNNY   96  23   7 S10G18    30.00F HX  90
HILL AFB       MOSUNNY   90  35  14 S7        30.07F
LOGAN          PTSUNNY   84  52  33 N9        30.06F
OGDEN          MOSUNNY   91  36  14 S7        30.03F
SALT LAKE CITY PTSUNNY   95  36  12 SW8       30.01F HX  90
TOOELE VALLEY  MOSUNNY   88  52  29 N5        30.02F
WENDOVER         N/A     91  38  15 E10       30.00F
HEBER CITY     MOSUNNY   91  34  13 W7        30.12F
WEST JORDAN    MOSUNNY   92  53  26 SE14G20   30.05F HX  90

$$

UTZ011>015-024>027-262100-

CENTRAL/NORTHEAST UTAH

CITY           SKY/WX    TMP DP  RH WIND       PRES   REMARKS
PROVO AIRPORT  MOSUNNY   90  55  31 VRB6      30.06F
MOAB/CANYONLAN SUNNY     97  18   6 VRB6      30.04F HX  90
DELTA          MOSUNNY   95  27   8 S7        30.05F
PRICE          MOSUNNY   90  25   9 VRB6      30.17F
RICHFIELD        N/A     93  32  11 S5G12     30.10F
VERNAL         SUNNY     91  30  11 VRB5      30.13F

$$

UTZ013>016-019>022-027-262100-

SOUTHERN UTAH

CITY           SKY/WX    TMP DP  RH WIND       PRES   REMARKS
BRYCE CANYON   PTSUNNY   82  27  13 SW16      30.33F
CEDAR CITY     SUNNY     93  21   7 S24G40    30.15F
MILFORD        SUNNY     97  24   7 SW15G29   30.06F HX  90
ST GEORGE      PTCLDY   105  22   5 SW35G41   29.91F HX  97
HANKSVILLE     SUNNY     99  21   6 CALM      30.06F HX  92
KANAB          MOSUNNY   99  25   7 SW16G24   30.12F HX  92
BLANDING       SUNNY     89  35  14 S5        30.28F

$$

REGIONAL REPORTS     COLORADO/ARIZONA

CITY           SKY/WX    TMP DP  RH WIND       PRES   REMARKS
CRAIG, CO      SUNNY     86  25  11 NW5       30.22F
GRAND JUNCTION SUNNY     95  26   8 W8G16     30.08F
RIFLE, CO      SUNNY     91  24   9 VRB6      30.15F
MONTROSE, CO   SUNNY     90  27  10 N10       30.17F
CORTEZ, CO     SUNNY     90  29  11 SW7G16    30.20F
COLORADO CITY    N/A    100  28   8 SW16G28   30.13F HX  94
PAGE, AZ       MOSUNNY  100  30   8 NW5       30.04F HX  94
GRAND CANYON   SUNNY     91  21   8 W15G31    30.29F
KINGMAN, AZ    SUNNY    101  28   7 SW18G29   30.05F HX  94
FLAGSTAFF, AZ  MOSUNNY   86  30  13 SW14G22   30.32F

$$

REGIONAL REPORTS    NEVADA/IDAHO/WYOMING

CITY           SKY/WX    TMP DP  RH WIND       PRES   REMARKS
LAS VEGAS, NV  SUNNY    105   3   2 S15G29    29.86F HX  96
ELY, NY        MOSUNNY   92  35  13 S16G29    30.13F
ELKO, NV       SUNNY     97  30   9 SW12G20   30.01F HX  91
POCATELLO, ID  SUNNY     90  46  21 NE8       30.04F
BURLEY, ID     SUNNY     93  47  20 NE9       29.96F
FORT BRIDGER,    N/A     84  29  13 W8        30.29F
EVANSTON, WY   SUNNY     83  33  16 W8        30.26F
ROCK SPRINGS,  SUNNY     83  24  11 SW8       30.23F
KEMMERER, WY     N/A     79  25  13 S6        30.28F

$$




USA.gov is the U.S. government's official web portal to all federal, state and local government web resources and services.